Regional Weather Roundup
Issued by NWS Mobile, AL

Home | Current Version | Previous Version | Text Only | Print | Product List | Glossary On
Versions: 1 2 3 4 5 6 7 8 9 10 11 12 13 14 15 16 17 18 19 20 21 22 23 24 25 26 27 28 29 30 31 32 33 34 35 36 37 38 39 40 41 42 43 44 45 46 47 48 49 50
000
ASUS44 KMOB 271010
RWRMOB
REGIONAL WEATHER ROUNDUP
NATIONAL WEATHER SERVICE MOBILE AL
400 AM CST TUE JAN 27 2015

NOTE: "FAIR" INDICATES FEW OR NO CLOUDS BELOW 12,000 FEET WITH NO
      SIGNIFICANT WEATHER AND/OR OBSTRUCTIONS TO VISIBILITY.

  * THESE STATIONS ARE PART OF THE UNIVERSITY OF SOUTH ALABAMA
    MESONET AND ARE NOT UNDER NWS OR FAA QUALITY CONTROL.

ALZ061>064-271100-
COASTAL ALABAMA

CITY           SKY/WX    TMP DP  RH WIND       PRES   REMARKS
MOBILE REG APT CLEAR     42  33  70 W3        30.02F
BROOKLEY FIELD CLEAR     47  35  63 W8        30.03S
USA CAMPUS*    NOT AVBL
DOG RIVER*     NOT AVBL


CITY           SKY/WX    TMP DP  RH WIND       PRES   REMARKS
MOUNT VERNON*  NOT AVBL
SARALAND*      NOT AVBL
BAY MINETTE*   NOT AVBL
LOXLEY*        NOT AVBL
ROBERTSDALE*   NOT AVBL
FAIRHOPE*        N/A     46  37  71 W5        30.02F
ELBERTA*         N/A     37  36  93 CALM      30.01F
FOLEY*         NOT AVBL
GRAND BAY*     NOT AVBL
DAUPHIN ISLND* NOT AVBL
BON SCOUR NWR* NOT AVBL
GULF SHORES    CLEAR     43  38  80 W7        30.02F

$$

ALZ051>060-271100-
INTERIOR SOUTHWEST AND SOUTH CENTRAL ALABAMA

CITY           SKY/WX    TMP DP  RH WIND       PRES   REMARKS
GREENVILLE     CLEAR     34  30  85 SW5       29.94F WCI  30
EVERGREEN      CLEAR     32  30  92 CALM      29.98F
CASTLEBERRY*   NOT AVBL
ATMORE*          N/A     39  34  81 SW6       30.01F
DIXIE*           N/A     37  34  87 W5        29.95F
ANDALUSIA/OPP  CLEAR     40  32  73 W6        29.97F
ANDALUSIA*       N/A     37  34  87 W6        29.96F
FLORALA APT    CLEAR     37  32  82 CALM      30.00F
FLORALA*         N/A    N/A N/A N/A CALM      29.96F

$$

FLZ001>006-271100-
WESTERN FLORIDA PANHANDLE

CITY           SKY/WX    TMP DP  RH WIND       PRES   REMARKS
PENSACOLA      CLEAR     46  34  62 W8        30.01F
NAS PENSACOLA  CLEAR     46  35  65 W5        30.01F
MILTON         CLEAR     41  33  73 W9        29.99F
WHTNG S FIELD  CLEAR     43  33  68 CALM      30.00F


CITY           SKY/WX    TMP DP  RH WIND       PRES   REMARKS
WALNUT HILL*   NOT AVBL
JAY*           NOT AVBL
CRESTVIEW      CLEAR     34  30  85 CALM      30.01F
VALPARAISO     CLEAR     37  33  84 W7        30.00F
DESTIN         CLEAR     50  36  58 VRB3      30.00F

$$

MSZ076-079-271100-
INTERIOR SOUTHEAST MISSISSIPPI

CITY           SKY/WX    TMP DP  RH WIND       PRES   REMARKS
LEAKESVILLE*   NOT AVBL
AGRICOLA*      NOT AVBL

$$

MARINE OBSERVATIONS

STATION/POSITION TIME  TEMP    WIND        PRES    WAVE
                       AIR SEA DIR/SP/G            HT/PER
                 (UTC) (F)     (DEG/KT/KT) (MB)    (FT/S)
PASCAGOULA       1000   51     250/  7/ 10 1016.8F
PETIT BOIS ISLND 1000   56     260/ 17/ 19 1017.3F
GRAND BAY        0900   45     290/  4     1018.0S
KATRINA CUT      0900   54     280/ 15     1017.6F
CEDAR POINT      0900   51     280/ 10     1016.6F
E DAUPHIN ISLAND 0900   52     270/  7/  8 1017.0F
MIDDLE BAY LIGHT 0900   51     280/ 13     1015.9F
USCG MOBILE BAY  1000   49 53  270/  7/ 10 1015.3F
STATE DOCKS      1000   49 50              1015.9F
MEAHER PARK      0900   49     190/  4     1016.9F
WEEKS BAY        0900   47                   N/A
FORT MORGAN      1000   55     290/ 19/ 20 1016.2F
12 S ORANGE BCH  1000   58 62  280/ 19/ 21 1016.1F   4/ 8
PENSACOLA BAY    1000   49 56  270/  4/  6 1016.5F
64 S DAUPHIN ISL 0855   61 70  290/ 19/ 23 1018.1F   5/ 5

$$

SELECTED LOCATIONS ACROSS THE REGION

CITY           SKY/WX    TMP DP  RH WIND       PRES   REMARKS
NEW ORLEANS    CLEAR     47  40  76 W7        30.07F
GULFPORT       CLEAR     40  35  83 CALM      30.04F
PASCAGOULA AP  CLEAR     43  36  76 SW3       30.03F
PASCAGOULA*    NOT AVBL
HATTIESBURG    CLEAR     47  35  63 W6        30.01F
LAUREL         CLEAR     45  34  65 W6        30.01S
MERIDIAN       CLEAR     37  32  82 CALM      29.99R
JACKSON        CLEAR     46  34  62 CALM      30.01S
MONTGOMERY     CLEAR     34  30  85 CALM      29.94F
TROY           CLEAR     34  29  82 CALM      29.95F
KINSTON*       NOT AVBL
GENEVA*        NOT AVBL
ASHFORD*         N/A     37  34  87 W6        29.96F
DOTHAN         CLEAR     36  31  82 SW7       29.99F
PANAMA CITY    CLEAR     37  34  89 CALM      30.00F

$$




USA.gov is the U.S. government's official web portal to all federal, state and local government web resources and services.